Date String (YYYY-MM-DD hh:mm:ss) UTC,Instrument flags,Ambient pressure (hPa),Sample flow (lpm),Bypass flow (lpm),Sample temperature (°C),Ambient temperature (°C),ASC tube jacket temperature (°C),LED temperature (°C),Box temperature (°C),Sample RH (%),Span deviation,Mass concentration (μg/m³),Mass concentration (μg/m³),Mass concentration (μg/m³)
DateTimeUTC,F1_M11,P_M11,Q1_M11,Q2_M11,T1_M11,T2_M11,T3_M11,T4_M11,T5_M11,U1_M11,ZSPAN_M11,X0_M11,X2_M11,X1_M11
2022-01-23 05:00:00,,0830.9,5.00,0.00,22.5,22.8,00.0,31.3,24.5,09.5,0000.0,0002.36,0001.48,0001.35
2022-01-23 05:01:00,,0830.9,5.00,0.00,22.5,22.6,00.0,31.4,24.4,09.4,0000.0,0002.60,0001.44,0001.34
2022-01-23 05:02:00,,0830.9,4.99,0.00,22.5,22.5,00.0,31.4,24.4,09.4,0000.0,0002.56,0001.45,0001.35
2022-01-23 05:03:00,,0830.9,5.01,0.00,22.5,22.3,00.0,31.4,24.3,09.5,0000.0,0002.54,0001.46,0001.36
2022-01-23 05:04:00,,0831.0,5.00,0.00,22.5,22.2,00.0,31.4,24.3,10.2,0000.0,0002.74,0001.47,0001.37
2022-01-23 05:05:00,,0830.9,4.99,0.00,22.5,22.2,00.0,31.4,24.3,10.4,0000.0,0002.76,0001.49,0001.38
2022-01-23 05:06:00,,0831.0,5.01,0.00,22.5,22.1,00.0,31.4,24.3,10.4,0000.0,0002.76,0001.49,0001.37
2022-01-23 05:07:00,,0831.0,4.99,0.00,22.5,22.1,00.0,31.4,24.3,10.4,0000.0,0002.68,0001.49,0001.38
2022-01-23 05:08:00,,0831.0,5.00,0.00,22.5,22.0,00.0,31.4,24.3,10.3,0000.0,0002.68,0001.49,0001.39
2022-01-23 05:09:00,,0831.0,5.02,0.00,22.5,22.0,00.0,31.4,24.3,10.3,0000.0,0002.77,0001.51,0001.39
2022-01-23 05:10:00,,0831.0,4.99,0.00,22.5,22.0,00.0,31.4,24.3,10.3,0000.0,0002.86,0001.52,0001.38
2022-01-23 05:11:00,,0831.0,5.00,0.00,22.5,21.9,00.0,31.4,24.3,10.2,0000.0,0002.73,0001.49,0001.37
2022-01-23 05:12:00,,0831.0,5.00,0.00,22.5,21.9,00.0,31.4,24.2,10.2,0000.0,0002.13,0001.48,0001.36
2022-01-23 05:13:00,,0831.0,4.99,0.00,22.5,21.9,00.0,31.4,24.2,10.1,0000.0,0002.10,0001.47,0001.35
2022-01-23 05:14:00,,0831.0,5.01,0.00,22.4,21.8,00.0,31.5,24.2,10.1,0000.0,0002.09,0001.47,0001.35
2022-01-23 05:15:00,,0831.0,4.99,0.00,22.4,21.8,00.0,31.5,24.2,10.0,0000.0,0001.87,0001.48,0001.37
2022-01-23 05:16:00,,0831.0,5.01,0.00,22.4,21.8,00.0,31.5,24.2,10.0,0000.0,0001.91,0001.51,0001.38
2022-01-23 05:17:00,,0831.1,4.99,0.00,22.4,21.8,00.0,31.4,24.1,10.1,0000.0,0001.97,0001.55,0001.42
2022-01-23 05:18:00,,0831.1,5.00,0.00,22.4,21.8,00.0,31.4,24.2,10.2,0000.0,0001.99,0001.58,0001.45
2022-01-23 05:19:00,,0831.1,4.99,0.00,22.4,21.8,00.0,31.4,24.2,10.3,0000.0,0002.04,0001.65,0001.52
2022-01-23 05:20:00,,0831.1,5.01,0.00,22.4,21.7,00.0,31.4,24.1,10.4,0000.0,0001.98,0001.67,0001.56
2022-01-23 05:21:00,,0831.1,4.98,0.00,22.4,21.7,00.0,31.4,24.1,10.5,0000.0,0002.00,0001.81,0001.70
2022-01-23 05:22:00,,0831.1,5.02,0.00,22.4,21.7,00.0,31.4,24.1,10.9,0000.0,0002.33,0002.08,0001.94
2022-01-23 05:23:00,,0831.1,4.99,0.00,22.4,21.7,00.0,31.4,24.1,10.9,0000.0,0002.62,0002.34,0002.16
2022-01-23 05:24:00,,0831.1,5.01,0.00,22.3,21.6,00.0,31.4,24.0,10.9,0000.0,0002.89,0002.61,0002.40
2022-01-23 05:25:00,,0831.0,4.99,0.00,22.3,21.6,00.0,31.4,24.0,10.9,0000.0,0003.14,0002.87,0002.63
2022-01-23 05:26:00,,0831.0,4.99,0.00,22.3,21.6,00.0,31.4,24.0,11.0,0000.0,0003.33,0003.07,0002.83
2022-01-23 05:27:00,,0831.0,5.00,0.00,22.3,21.6,00.0,31.4,24.0,11.0,0000.0,0003.47,0003.19,0003.01
2022-01-23 05:28:00,,0831.0,5.00,0.00,22.3,21.6,00.0,31.4,24.0,11.0,0000.0,0003.60,0003.27,0003.16
2022-01-23 05:29:00,,0831.0,4.99,0.00,22.3,21.6,00.0,31.4,24.0,11.0,0000.0,0003.78,0003.38,0003.26
2022-01-23 05:30:00,,0831.0,4.99,0.00,22.3,21.7,00.0,31.4,24.0,11.0,0000.0,0004.17,0003.48,0003.36
2022-01-23 05:31:00,,0831.0,5.00,0.00,22.4,22.3,00.0,31.4,24.3,11.0,0000.0,0004.47,0003.59,0003.46
2022-01-23 05:32:00,,0831.0,5.00,0.00,22.5,23.0,00.0,31.5,24.5,10.9,0000.0,0004.69,0003.65,0003.51
2022-01-23 05:33:00,,0831.0,5.00,0.00,22.6,23.0,00.0,31.5,24.6,10.9,0000.0,0004.67,0003.64,0003.51
2022-01-23 05:34:00,,0831.0,5.00,0.00,22.6,22.8,00.0,31.5,24.6,10.9,0000.0,0004.74,0003.64,0003.51
2022-01-23 05:35:00,,0831.0,5.00,0.00,22.6,22.7,00.0,31.5,24.5,10.8,0000.0,0004.74,0003.62,0003.50
2022-01-23 05:36:00,,0831.0,5.00,0.00,22.6,22.5,00.0,31.5,24.5,10.8,0000.0,0004.79,0003.63,0003.50
2022-01-23 05:37:00,,0831.0,5.02,0.00,22.6,22.4,00.0,31.5,24.4,10.7,0000.0,0004.92,0003.65,0003.49
2022-01-23 05:38:00,,0831.0,4.99,0.00,22.6,22.2,00.0,31.5,24.4,10.6,0000.0,0004.99,0003.64,0003.48
2022-01-23 05:39:00,,0831.0,5.00,0.00,22.6,22.1,00.0,31.5,24.4,10.6,0000.0,0004.97,0003.62,0003.45
2022-01-23 05:40:00,,0831.0,5.00,0.00,22.6,22.1,00.0,31.5,24.3,10.5,0000.0,0005.03,0003.60,0003.42
2022-01-23 05:41:00,,0831.0,5.00,0.00,22.5,22.0,00.0,31.5,24.3,10.5,0000.0,0004.86,0003.57,0003.37
2022-01-23 05:42:00,,0831.0,5.00,0.00,22.5,21.9,00.0,31.5,24.3,10.5,0000.0,0004.86,0003.55,0003.33
2022-01-23 05:43:00,,0831.0,5.00,0.00,22.5,21.9,00.0,31.5,24.3,10.4,0000.0,0004.68,0003.50,0003.28
2022-01-23 05:44:00,,0831.0,5.01,0.00,22.5,21.9,00.0,31.5,24.2,10.4,0000.0,0004.53,0003.44,0003.23
2022-01-23 05:45:00,,0831.1,5.01,0.00,22.5,21.9,00.0,31.5,24.2,10.4,0000.0,0004.36,0003.39,0003.19
2022-01-23 05:46:00,,0831.2,4.99,0.00,22.5,21.8,00.0,31.5,24.2,10.4,0000.0,0004.21,0003.33,0003.14
2022-01-23 05:47:00,,0831.2,5.02,0.00,22.4,21.8,00.0,31.5,24.2,10.4,0000.0,0004.17,0003.28,0003.08
2022-01-23 05:48:00,,0831.2,5.00,0.00,22.4,21.8,00.0,31.5,24.1,10.4,0000.0,0003.99,0003.21,0003.01
2022-01-23 05:49:00,,0831.2,4.99,0.00,22.4,21.7,00.0,31.5,24.1,10.4,0000.0,0003.81,0003.18,0002.98
2022-01-23 05:50:00,,0831.2,5.01,0.00,22.4,21.7,00.0,31.5,24.1,10.4,0000.0,0003.87,0003.16,0002.95
2022-01-23 05:51:00,,0831.2,4.99,0.00,22.4,21.7,00.0,31.5,24.1,10.4,0000.0,0005.78,0003.16,0002.93
2022-01-23 05:52:00,,0831.1,5.01,0.00,22.3,21.6,00.0,31.4,24.0,10.4,0000.0,0006.51,0003.12,0002.88
2022-01-23 05:53:00,,0831.1,4.99,0.00,22.3,21.6,00.0,31.4,24.0,10.4,0000.0,0006.87,0003.08,0002.87
2022-01-23 05:54:00,,0831.1,5.01,0.00,22.3,21.6,00.0,31.4,24.0,10.4,0000.0,0007.37,0003.07,0002.88
2022-01-23 05:55:00,,0831.1,4.99,0.00,22.3,21.6,00.0,31.4,24.0,10.4,0000.0,0007.37,0003.08,0002.88
2022-01-23 05:56:00,,0831.2,5.01,0.00,22.3,21.5,00.0,31.4,23.9,10.4,0000.0,0007.35,0003.06,0002.88
2022-01-23 05:57:00,,0831.2,4.99,0.00,22.3,21.6,00.0,31.4,24.0,10.4,0000.0,0007.33,0003.05,0002.87
2022-01-23 05:58:00,,0831.2,5.00,0.00,22.4,22.2,00.0,31.4,24.2,10.3,0000.0,0007.33,0003.06,0002.86
2022-01-23 05:59:00,,0831.2,5.01,0.00,22.5,23.0,00.0,31.5,24.4,10.2,0000.0,0007.44,0003.06,0002.84
